• în România
  • Lista ţărilor
  • Pe 7 zile
  • Temperatura apei
  • Hartă satelitară
  • Meteo pe hartă
  • Widget-uri
  • user-avatar
    Intrare

    Meteo pe oră la Gomel

    Astăzi, 23 Septembrie, Duminică

    Timp Temperatura Precipitaţii Vânt Presiune Umiditate
    00:00 +8°C° 0.6 mm 4 m/s 750 mmHg 90%
    01:00 +8°C° 0.6 mm 4 m/s 750 mmHg 91%
    02:00 +9°C° 0 mm 3 m/s 750 mmHg 91%
    03:00 +9°C° 0 mm 3 m/s 750 mmHg 92%
    04:00 +8°C° 0 mm 3 m/s 750 mmHg 93%
    05:00 +7°C° 0 mm 4 m/s 750 mmHg 94%
    06:00 +7°C° 0 mm 4 m/s 750 mmHg 93%
    07:00 +8°C° 0 mm 4 m/s 750 mmHg 91%
    08:00 +8°C° 0 mm 4 m/s 750 mmHg 90%
    09:00 +10°C° 0 mm 4 m/s 750 mmHg 84%
    10:00 +11°C° 0 mm 4 m/s 750 mmHg 79%
    11:00 +12°C° 0 mm 4 m/s 750 mmHg 74%
    12:00 +14°C° 0 mm 4 m/s 750 mmHg 67%
    13:00 +15°C° 0 mm 4 m/s 749 mmHg 60%
    14:00 +17°C° 0 mm 4 m/s 749 mmHg 54%
    15:00 +15°C° 0.1 mm 4 m/s 749 mmHg 57%
    16:00 +16°C° 0.1 mm 3 m/s 749 mmHg 60%
    17:00 +14°C° 0.1 mm 3 m/s 749 mmHg 64%
    18:00 +14°C° 0 mm 2 m/s 749 mmHg 67%
    19:00 +13°C° 0 mm 2 m/s 749 mmHg 69%
    20:00 +10°C° 0 mm 2 m/s 749 mmHg 72%
    21:00 +10°C° 0 mm 3 m/s 749 mmHg 73%
    22:00 +10°C° 0 mm 3 m/s 748 mmHg 73%
    23:00 +10°C° 0 mm 3 m/s 748 mmHg 73%

    Mâine, 24 Septembrie, Luni

    Timp Temperatura Precipitaţii Vânt Presiune Umiditate
    00:00 +10°C° 0 mm 3 m/s 747 mmHg 75%
    01:00 +10°C° 0 mm 3 m/s 747 mmHg 76%
    02:00 +10°C° 0 mm 3 m/s 746 mmHg 78%
    03:00 +10°C° 1.1 mm 4 m/s 746 mmHg 82%
    04:00 +10°C° 1.1 mm 4 m/s 745 mmHg 86%
    05:00 +10°C° 1.1 mm 4 m/s 744 mmHg 89%
    06:00 +9°C° 0.9 mm 5 m/s 743 mmHg 89%
    07:00 +9°C° 0.9 mm 6 m/s 742 mmHg 88%
    08:00 +9°C° 0.9 mm 8 m/s 741 mmHg 87%
    09:00 +9°C° 1.3 mm 8 m/s 740 mmHg 88%
    10:00 +10°C° 1.3 mm 8 m/s 739 mmHg 89%
    11:00 +10°C° 1.3 mm 8 m/s 738 mmHg 90%
    12:00 +11°C° 1.5 mm 8 m/s 737 mmHg 90%
    13:00 +12°C° 1.5 mm 8 m/s 736 mmHg 90%
    14:00 +13°C° 1.5 mm 8 m/s 736 mmHg 90%
    15:00 +12°C° 0.2 mm 8 m/s 736 mmHg 88%
    16:00 +10°C° 0.2 mm 9 m/s 737 mmHg 87%
    17:00 +8°C° 0.2 mm 9 m/s 737 mmHg 85%
    18:00 +8°C° 0 mm 9 m/s 738 mmHg 84%
    19:00 +8°C° 0 mm 9 m/s 740 mmHg 83%
    20:00 +7°C° 0 mm 8 m/s 741 mmHg 82%
    21:00 +7°C° 0 mm 8 m/s 741 mmHg 83%
    22:00 +6°C° 0 mm 7 m/s 742 mmHg 85%
    23:00 +7°C° 0 mm 6 m/s 742 mmHg 86%

    Poimâine, 25 Septembrie, Marţi

    Timp Temperatura Precipitaţii Vânt Presiune Umiditate
    00:00 +7°C° 0 mm 6 m/s 743 mmHg 87%
    01:00 +7°C° 0 mm 6 m/s 743 mmHg 88%
    02:00 +6°C° 0 mm 5 m/s 744 mmHg 89%
    03:00 +6°C° 0 mm 5 m/s 744 mmHg 87%
    04:00 +6°C° 0 mm 5 m/s 745 mmHg 85%
    05:00 +6°C° 0 mm 5 m/s 746 mmHg 83%
    06:00 +5°C° 0 mm 6 m/s 746 mmHg 81%
    07:00 +5°C° 0 mm 6 m/s 747 mmHg 79%
    08:00 +5°C° 0 mm 7 m/s 748 mmHg 77%
    09:00 +6°C° 0 mm 7 m/s 748 mmHg 71%
    10:00 +8°C° 0 mm 7 m/s 749 mmHg 64%
    11:00 +9°C° 0 mm 7 m/s 749 mmHg 58%
    12:00 +9°C° 0.1 mm 7 m/s 750 mmHg 56%
    13:00 +9°C° 0.1 mm 7 m/s 750 mmHg 54%
    14:00 +10°C° 0.1 mm 7 m/s 750 mmHg 52%
    15:00 +9°C° 0.1 mm 6 m/s 751 mmHg 56%
    16:00 +8°C° 0.1 mm 6 m/s 751 mmHg 60%
    17:00 +7°C° 0.1 mm 5 m/s 752 mmHg 63%
    18:00 +7°C° 0 mm 5 m/s 752 mmHg 67%
    19:00 +6°C° 0 mm 4 m/s 753 mmHg 70%
    20:00 +5°C° 0 mm 4 m/s 754 mmHg 73%
    21:00 +4°C° 0 mm 4 m/s 754 mmHg 74%
    22:00 +4°C° 0 mm 4 m/s 755 mmHg 74%
    23:00 +4°C° 0 mm 4 m/s 755 mmHg 75%

    26 Septembrie, Miercuri

    Timp Temperatura Precipitaţii Vânt Presiune Umiditate
    00:00 +3°C° 0 mm 4 m/s 756 mmHg 75%
    01:00 +3°C° 0 mm 4 m/s 756 mmHg 75%
    02:00 +3°C° 0 mm 4 m/s 757 mmHg 75%
    03:00 +1°C° 0 mm 4 m/s 757 mmHg 75%
    04:00 +1°C° 0 mm 4 m/s 758 mmHg 74%
    05:00 +1°C° 0 mm 4 m/s 758 mmHg 74%
    06:00 +1°C° 0 mm 4 m/s 759 mmHg 71%
    07:00 +3°C° 0 mm 4 m/s 759 mmHg 69%
    08:00 +3°C° 0 mm 5 m/s 760 mmHg 66%
    09:00 +6°C° 0 mm 5 m/s 760 mmHg 63%
    10:00 +7°C° 0 mm 5 m/s 760 mmHg 59%
    11:00 +9°C° 0 mm 5 m/s 760 mmHg 55%
    12:00 +10°C° 0 mm 5 m/s 760 mmHg 52%
    13:00 +10°C° 0 mm 5 m/s 760 mmHg 49%
    14:00 +12°C° 0 mm 5 m/s 759 mmHg 46%
    15:00 +11°C° 0 mm 4 m/s 759 mmHg 49%
    16:00 +10°C° 0 mm 4 m/s 759 mmHg 52%
    17:00 +10°C° 0 mm 3 m/s 759 mmHg 55%
    18:00 +9°C° 0 mm 3 m/s 759 mmHg 56%
    19:00 +8°C° 0 mm 3 m/s 759 mmHg 57%
    20:00 +7°C° 0 mm 4 m/s 758 mmHg 59%
    21:00 +7°C° 0.1 mm 4 m/s 758 mmHg 62%
    22:00 +7°C° 0.1 mm 4 m/s 757 mmHg 66%
    23:00 +7°C° 0.1 mm 5 m/s 757 mmHg 70%

    27 Septembrie, Joi

    Timp Temperatura Precipitaţii Vânt Presiune Umiditate
    00:00 +7°C° 0.1 mm 5 m/s 756 mmHg 71%
    01:00 +7°C° 0.1 mm 5 m/s 756 mmHg 71%
    02:00 +7°C° 0.1 mm 6 m/s 755 mmHg 72%
    03:00 +7°C° 0.1 mm 6 m/s 754 mmHg 72%
    04:00 +6°C° 0.1 mm 7 m/s 753 mmHg 73%
    05:00 +6°C° 0.1 mm 7 m/s 752 mmHg 73%
    06:00 +6°C° 0.3 mm 7 m/s 752 mmHg 75%
    07:00 +6°C° 0.3 mm 7 m/s 751 mmHg 77%
    08:00 +6°C° 0.3 mm 8 m/s 751 mmHg 79%
    09:00 +6°C° 0.2 mm 8 m/s 750 mmHg 80%
    10:00 +7°C° 0.2 mm 8 m/s 750 mmHg 82%
    11:00 +7°C° 0.2 mm 8 m/s 750 mmHg 83%
    12:00 +9°C° 0.1 mm 8 m/s 750 mmHg 84%
    13:00 +9°C° 0.1 mm 8 m/s 749 mmHg 84%
    14:00 +10°C° 0.1 mm 8 m/s 749 mmHg 84%
    15:00 +10°C° 0 mm 7 m/s 749 mmHg 85%
    16:00 +10°C° 0 mm 7 m/s 749 mmHg 85%
    17:00 +11°C° 0 mm 7 m/s 749 mmHg 85%
    18:00 +11°C° 0.1 mm 7 m/s 749 mmHg 84%
    19:00 +11°C° 0.1 mm 6 m/s 750 mmHg 84%
    20:00 +12°C° 0.1 mm 5 m/s 750 mmHg 84%
    21:00 +10°C° 0 mm 5 m/s 750 mmHg 85%
    22:00 +10°C° 0 mm 4 m/s 751 mmHg 86%
    23:00 +8°C° 0 mm 4 m/s 751 mmHg 88%

    28 Septembrie, Vineri

    Timp Temperatura Precipitaţii Vânt Presiune Umiditate
    00:00 +9°C° 0 mm 3 m/s 751 mmHg 90%
    01:00 +8°C° 0 mm 3 m/s 751 mmHg 92%
    02:00 +7°C° 0 mm 3 m/s 752 mmHg 94%
    03:00 +7°C° 0 mm 2 m/s 752 mmHg 94%
    04:00 +7°C° 0 mm 2 m/s 752 mmHg 95%
    05:00 +6°C° 0 mm 2 m/s 751 mmHg 95%
    06:00 +7°C° 0 mm 3 m/s 751 mmHg 92%
    07:00 +8°C° 0 mm 3 m/s 751 mmHg 89%
    08:00 +8°C° 0 mm 4 m/s 751 mmHg 86%
    09:00 +10°C° 0 mm 5 m/s 750 mmHg 81%
    10:00 +13°C° 0 mm 6 m/s 749 mmHg 77%
    11:00 +15°C° 0 mm 8 m/s 749 mmHg 72%
    12:00 +15°C° 0.2 mm 8 m/s 748 mmHg 76%
    13:00 +15°C° 0.2 mm 7 m/s 748 mmHg 80%
    14:00 +14°C° 0.2 mm 7 m/s 747 mmHg 83%
    15:00 +14°C° 0.1 mm 7 m/s 748 mmHg 80%
    16:00 +14°C° 0.1 mm 6 m/s 749 mmHg 77%
    17:00 +14°C° 0.1 mm 6 m/s 749 mmHg 74%
    18:00 +11°C° 0 mm 6 m/s 750 mmHg 78%
    19:00 +9°C° 0 mm 5 m/s 751 mmHg 82%
    20:00 +7°C° 0 mm 4 m/s 752 mmHg 86%
    21:00 +6°C° 0 mm 4 m/s 753 mmHg 88%
    22:00 +4°C° 0 mm 3 m/s 754 mmHg 90%
    23:00 +3°C° 0 mm 3 m/s 754 mmHg 91%
    Arată mai mult